FW0960 Weather Reports


Display with metric or nautical units.
time (UTC)temp
F
wind
direction
speed
MPH
gust
MPH
rain 1hr
in
rain 24hr
in
rain mn
in
humidity
%
barometer
mb
20210802035732 70 193 1.0 4.0 0.00 0.00 0.00 95 1011.4
20210802035232 70 193 0.0 4.0 0.00 0.00 0.00 95 1011.3
20210802034733 70 193 0.0 1.0 0.00 0.00 0.00 95 1011.1
20210802034230 70 193 0.0 1.0 0.00 0.00 0.00 95 1011.3
20210802033732 70 193 0.0 1.0 0.00 0.00 0.00 95 1011.2
20210802033231 70 193 0.0 0.0 0.00 0.00 0.00 95 1011.3
20210802032730 70 193 0.0 0.0 0.00 0.00 0.00 94 1011.2
20210802032230 70 193 0.0 0.0 0.00 0.00 0.00 94 1011.4
20210802031731 70 193 0.0 0.0 0.00 0.00 0.00 94 1011.3
20210802031230 71 193 0.0 0.0 0.00 0.00 0.00 94 1011.2
20210802030728 71 193 0.0 0.0 0.00 0.00 0.00 93 1011.3
20210802030229 71 193 0.0 0.0 0.00 0.00 0.00 93 1011.4
20210802025724 71 193 0.0 0.0 0.00 0.00 0.00 93 1011.0
20210802025222 71 193 0.0 0.0 0.00 0.00 0.00 93 1010.9
20210802024724 71 193 0.0 0.0 0.00 0.00 0.00 93 1010.8
20210802024222 71 193 0.0 0.0 0.00 0.00 0.00 93 1010.9
20210802023721 71 193 0.0 0.0 0.00 0.00 0.00 94 1011.0
20210802023217 71 193 0.0 0.0 0.00 0.00 0.00 94 1011.1
20210802022718 71 193 0.0 0.0 0.00 0.00 0.00 94 1011.1
20210802022219 71 193 0.0 0.0 0.00 0.00 0.00 94 1011.2
20210802021717 71 193 0.0 0.0 0.00 0.00 0.00 94 1011.2
20210802020718 71 193 0.0 0.0 0.00 0.00 0.00 94 1011.2
20210802020218 71 193 0.0 0.0 0.00 0.00 0.00 94 1011.3
20210802015721 71 193 0.0 0.0 0.00 0.00 0.00 94 1011.1
20210802014712 71 193 0.0 0.0 0.00 0.00 0.00 94 1011.1
20210802014214 71 193 0.0 0.0 0.00 0.00 0.00 94 1011.0
20210802013710 71 193 0.0 0.0 0.00 0.00 0.00 94 1011.0
20210802013210 71 193 0.0 0.0 0.00 0.00 0.00 94 1011.0
20210802011707 71 193 0.0 0.0 0.00 0.00 0.00 93 1010.7
20210802011211 72 193 0.0 0.0 0.00 0.00 0.00 93 1010.7
20210802010706 72 193 0.0 0.0 0.00 0.00 0.00 93 1010.7
20210802010205 72 193 0.0 0.0 0.00 0.00 0.00 93 1010.6
20210802005708 72 193 0.0 0.0 0.00 0.00 0.00 92 1010.5
20210802005208 72 193 0.0 0.0 0.00 0.00 0.00 91 1010.5
20210802004701 73 193 0.0 0.0 0.00 0.00 0.00 91 1010.3
20210802004201 73 193 0.0 0.0 0.00 0.00 0.00 91 1010.4
20210802003701 73 193 0.0 0.0 0.00 0.00 0.00 90 1010.4
20210802003204 73 193 0.0 0.0 0.00 0.00 0.00 89 1010.5
20210802002703 73 193 0.0 0.0 0.00 0.00 0.00 89 1010.5
20210802002202 73 193 0.0 2.0 0.00 0.00 0.00 89 1010.6
20210802001702 73 193 1.0 5.0 0.00 0.00 0.00 88 1010.6
20210802001159 74 190 1.0 5.0 0.00 0.00 0.00 88 1010.6
20210802000657 74 148 0.0 2.0 0.00 0.00 0.00 88 1010.6
20210802000158 74 88 0.0 1.0 0.00 0.00 0.00 87 1010.4
20210801235700 74 307 0.0 0.0 0.00 0.00 0.00 86 1010.3
20210801235201 74 307 0.0 0.0 0.00 0.00 0.00 86 1010.3
20210801234659 74 307 0.0 0.0 0.00 0.00 0.00 86 1010.3
20210801234155 74 307 0.0 0.0 0.00 0.00 0.00 85 1010.2
20210801233655 75 307 0.0 0.0 0.00 0.00 0.00 85 1010.3
20210801233154 75 307 0.0 0.0 0.00 0.00 0.00 85 1010.2
20210801232654 75 307 0.0 0.0 0.00 0.00 0.00 85 1010.3
20210801232154 75 307 0.0 0.0 0.00 0.00 0.00 84 1010.3
20210801231653 75 307 0.0 1.0 0.00 0.00 0.00 84 1010.3
20210801231156 75 307 0.0 1.0 0.00 0.00 0.00 84 1010.2
20210801230147 75 307 0.0 1.0 0.00 0.00 0.00 83 1010.0
20210801225645 75 307 0.0 1.0 0.00 0.00 0.00 83 1010.1
20210801225146 75 307 0.0 1.0 0.00 0.00 0.00 82 1010.1
20210801224644 75 306 0.0 0.0 0.00 0.00 0.00 82 1010.3
20210801224143 75 306 0.0 0.0 0.00 0.00 0.00 82 1010.2
20210801223637 75 306 0.0 0.0 0.00 0.00 0.00 81 1010.3
20210801223139 75 306 0.0 1.0 0.00 0.00 0.00 81 1010.3
20210801222632 76 306 0.0 1.0 0.00 0.00 0.00 80 1010.4
20210801222130 76 310 0.0 1.0 0.00 0.00 0.00 80 1010.6
20210801221629 76 310 0.0 1.0 0.00 0.00 0.00 79 1010.6
20210801221127 76 310 0.0 1.0 0.00 0.00 0.00 78 1010.5
20210801220627 77 310 0.0 1.0 0.00 0.00 0.00 78 1010.4
20210801220128 77 310 0.0 2.0 0.00 0.00 0.00 77 1010.1
20210801215626 77 310 0.0 2.0 0.00 0.00 0.00 77 1010.2
20210801215124 77 294 0.0 1.0 0.00 0.00 0.00 77 1010.3
20210801214625 77 294 0.0 0.0 0.00 0.00 0.00 76 1010.5
20210801214118 77 294 0.0 1.0 0.00 0.00 0.00 77 1010.6
20210801213617 77 294 0.0 1.0 0.00 0.00 0.00 77 1010.4
20210801213128 78 295 0.0 1.0 0.00 0.00 0.00 76 1010.4
20210801212611 78 295 0.0 1.0 0.00 0.00 0.00 76 1010.4
20210801212114 78 295 0.0 1.0 0.00 0.00 0.00 77 1010.4
20210801211104 77 295 0.0 1.0 0.00 0.00 0.00 75 1010.4
20210801210600 77 295 0.0 3.0 0.00 0.00 0.00 76 1010.3
20210801210101 77 295 0.0 3.0 0.00 0.00 0.00 76 1010.3
20210801205602 77 295 0.0 3.0 0.00 0.00 0.00 76 1010.2
20210801205102 77 321 0.0 3.0 0.00 0.00 0.00 75 1010.3
20210801204102 77 235 0.0 1.0 0.00 0.00 0.00 76 1010.5
20210801203602 78 245 0.0 0.0 0.00 0.00 0.00 75 1010.6
20210801203104 78 245 0.0 1.0 0.00 0.00 0.00 75 1010.7
20210801202559 78 245 0.0 1.0 0.00 0.00 0.00 74 1010.7
20210801202103 78 245 0.0 2.0 0.00 0.00 0.00 74 1010.6
20210801201557 78 245 0.0 2.0 0.00 0.00 0.00 74 1010.8
20210801201056 79 245 0.0 2.0 0.00 0.00 0.00 74 1010.9
20210801200055 79 30 0.0 2.0 0.00 0.00 0.00 75 1011.0
20210801195553 78 38 0.0 2.0 0.00 0.00 0.00 74 1011.1
20210801195055 78 257 0.0 1.0 0.00 0.00 0.00 74 1011.0
20210801194551 78 298 0.0 1.0 0.00 0.00 0.00 75 1011.0
20210801194051 78 287 0.0 2.0 0.00 0.00 0.00 74 1011.1
20210801193551 78 235 0.0 2.0 0.00 0.00 0.00 76 1011.0
20210801193053 78 235 0.0 1.0 0.00 0.00 0.00 76 1011.0
20210801192547 78 235 0.0 1.0 0.00 0.00 0.00 77 1011.0
20210801192046 78 235 0.0 1.0 0.00 0.00 0.00 75 1011.0
20210801191542 78 296 0.0 1.0 0.00 0.00 0.00 74 1011.0
20210801191042 78 270 0.0 3.0 0.00 0.00 0.00 76 1011.0
20210801190540 78 304 0.0 3.0 0.00 0.00 0.00 76 1011.1
20210801190036 78 271 0.0 2.0 0.00 0.00 0.00 77 1011.3
20210801185538 78 297 0.0 1.0 0.00 0.00 0.00 78 1011.2
20210801185030 78 284 0.0 1.0 0.00 0.00 0.00 79 1011.1
20210801184531 77 277 0.0 1.0 0.00 0.00 0.00 79 1011.1
20210801184033 77 161 0.0 1.0 0.00 0.00 0.00 80 1011.1
20210801183531 77 256 0.0 1.0 0.00 0.00 0.00 79 1011.1
20210801183031 77 256 0.0 1.0 0.00 0.00 0.00 79 1011.2
20210801182530 77 253 0.0 0.0 0.00 0.00 0.00 78 1011.1
20210801182031 76 253 0.0 0.0 0.00 0.00 0.00 79 1011.1
20210801181530 76 253 0.0 0.0 0.00 0.00 0.00 78 1011.2
20210801181029 76 285 0.0 0.0 0.00 0.00 0.00 78 1011.1
20210801175529 75 284 0.0 2.0 0.00 0.00 0.00 79 1011.2
20210801175029 75 329 0.0 2.0 0.00 0.00 0.00 78 1011.2
20210801174531 75 329 0.0 0.0 0.00 0.00 0.00 78 1011.5
20210801174029 75 329 0.0 0.0 0.00 0.00 0.00 79 1011.5
20210801173529 75 329 0.0 0.0 0.00 0.00 0.00 79 1011.6
20210801173029 75 329 0.0 0.0 0.00 0.00 0.00 80 1011.7
20210801172529 74 329 0.0 0.0 0.00 0.00 0.00 79 1011.9
20210801172029 74 329 0.0 1.0 0.00 0.00 0.00 81 1011.9
20210801171531 74 329 0.0 1.0 0.00 0.00 0.00 82 1012.0
20210801170529 74 329 0.0 0.0 0.00 0.00 0.00 82 1012.1
20210801170031 74 329 0.0 1.0 0.00 0.00 0.00 82 1012.2
20210801165529 74 329 0.0 1.0 0.00 0.00 0.00 83 1012.3
20210801165034 73 329 0.0 0.0 0.00 0.00 0.00 84 1012.2
20210801164530 73 329 0.0 0.0 0.00 0.00 0.00 85 1012.3
20210801164034 73 329 0.0 0.0 0.00 0.00 0.00 85 1012.3
20210801163533 73 329 0.0 0.0 0.00 0.00 0.00 85 1012.4
20210801163031 73 329 0.0 1.0 0.00 0.00 0.00 85 1012.7
20210801162530 73 329 0.0 1.0 0.00 0.00 0.00 84 1012.7
20210801162029 73 329 0.0 0.0 0.00 0.00 0.00 84 1012.8
20210801161533 73 329 0.0 0.0 0.00 0.00 0.00 83 1012.9
20210801161029 73 329 0.0 0.0 0.00 0.00 0.00 84 1013.0
20210801160528 72 329 0.0 0.0 0.00 0.00 0.00 85 1013.1
20210801155522 72 329 0.0 0.0 0.00 0.00 0.00 86 1013.2
20210801154525 72 329 0.0 0.0 0.00 0.00 0.00 85 1013.3
20210801154024 72 329 0.0 0.0 0.00 0.00 0.00 85 1013.5
20210801153518 72 329 0.0 0.0 0.00 0.00 0.00 86 1013.5
20210801153020 72 329 0.0 0.0 0.00 0.00 0.00 86 1013.5
20210801152021 73 329 0.0 1.0 0.00 0.00 0.00 88 1013.6
20210801151511 73 329 0.0 0.0 0.00 0.00 0.00 89 1013.6
20210801150007 72 329 0.0 0.0 0.00 0.00 0.00 89 1013.5
20210801145506 72 329 0.0 0.0 0.00 0.00 0.00 89 1013.5
20210801145004 72 329 0.0 0.0 0.00 0.00 0.00 89 1013.2
20210801144502 72 329 0.0 0.0 0.00 0.00 0.00 89 1013.3
20210801144004 72 330 0.0 0.0 0.00 0.00 0.00 89 1013.1
20210801143505 72 330 0.0 0.0 0.00 0.00 0.00 89 1013.1
20210801143008 72 330 0.0 0.0 0.00 0.00 0.00 90 1013.3
20210801142500 72 330 0.0 0.0 0.00 0.00 0.00 90 1013.3
20210801142001 72 330 0.0 0.0 0.00 0.00 0.00 89 1013.4
20210801141500 72 330 0.0 0.0 0.00 0.00 0.00 90 1013.4
20210801141001 72 330 0.0 0.0 0.00 0.00 0.00 90 1013.2
20210801140502 72 330 0.0 0.0 0.00 0.00 0.00 90 1013.3
20210801140005 72 330 0.0 0.0 0.00 0.00 0.00 90 1013.3
20210801135501 72 330 0.0 0.0 0.00 0.00 0.00 90 1013.2
20210801135002 72 330 0.0 0.0 0.00 0.00 0.00 90 1013.3
20210801134501 72 330 0.0 0.0 0.00 0.00 0.00 91 1013.2
20210801134035 72 330 0.0 0.0 0.00 0.00 0.00 91 1013.2
20210801133503 72 330 0.0 0.0 0.00 0.00 0.00 91 1013.1
20210801133002 71 330 0.0 0.0 0.00 0.00 0.00 90 1013.1
20210801132502 71 330 0.0 1.0 0.00 0.00 0.00 90 1013.3
20210801132004 71 330 0.0 1.0 0.00 0.00 0.00 90 1013.2
20210801131501 71 330 0.0 1.0 0.00 0.00 0.00 90 1013.3
20210801131000 71 330 0.0 1.0 0.00 0.00 0.00 91 1013.3
20210801130503 71 330 0.0 0.0 0.00 0.00 0.00 91 1013.4
20210801130004 71 330 0.0 0.0 0.00 0.00 0.00 91 1013.2
20210801125500 71 330 0.0 0.0 0.00 0.00 0.00 90 1013.3
20210801125004 71 330 0.0 0.0 0.00 0.00 0.00 90 1013.4
20210801124506 71 330 0.0 1.0 0.00 0.00 0.00 89 1013.4
20210801124001 71 330 0.0 1.0 0.00 0.00 0.00 89 1013.4
20210801123503 71 333 0.0 1.0 0.00 0.00 0.00 91 1013.4
20210801123001 72 333 0.0 0.0 0.00 0.00 0.00 91 1013.5
20210801122503 72 333 0.0 0.0 0.00 0.00 0.00 91 1013.6
20210801122001 71 333 0.0 0.0 0.00 0.00 0.00 91 1013.6
20210801121500 72 333 0.0 0.0 0.00 0.00 0.00 91 1013.7
20210801121006 72 333 0.0 0.0 0.00 0.00 0.00 91 1013.5
20210801120503 72 333 0.0 0.0 0.00 0.00 0.00 91 1013.5
20210801120004 72 333 0.0 0.0 0.00 0.00 0.00 91 1013.5
20210801115501 72 333 0.0 0.0 0.00 0.00 0.00 91 1013.6
20210801114501 72 333 0.0 0.0 0.00 0.00 0.00 91 1013.4
20210801114001 72 333 0.0 0.0 0.00 0.00 0.00 91 1013.5
20210801113503 72 333 0.0 0.0 0.00 0.00 0.00 91 1013.5
20210801113003 72 333 0.0 0.0 0.00 0.00 0.00 91 1013.6
20210801112003 72 333 0.0 0.0 0.00 0.00 0.00 91 1013.7
20210801111505 72 333 0.0 0.0 0.00 0.00 0.00 91 1013.5
20210801110502 72 333 0.0 0.0 0.00 0.00 0.00 91 1013.5
20210801110002 71 333 0.0 0.0 0.00 0.00 0.00 91 1013.5
20210801105503 71 333 0.0 0.0 0.00 0.00 0.00 91 1013.5
20210801105001 72 333 0.0 0.0 0.00 0.00 0.00 91 1013.6
20210801104505 71 333 0.0 0.0 0.00 0.00 0.00 91 1013.4
20210801104005 71 333 0.0 0.0 0.00 0.00 0.00 92 1013.3
20210801103505 71 333 0.0 0.0 0.00 0.00 0.00 91 1013.4
20210801103001 71 333 0.0 0.0 0.00 0.00 0.00 91 1013.5
20210801101501 71 333 0.0 0.0 0.00 0.00 0.00 91 1013.4
20210801101003 71 333 0.0 0.0 0.00 0.00 0.00 91 1013.4
20210801100501 71 333 0.0 0.0 0.00 0.00 0.00 91 1013.4
20210801100002 71 333 0.0 0.0 0.00 0.00 0.00 91 1013.4
20210801095004 71 333 0.0 0.0 0.00 0.00 0.00 91 1013.3
20210801094507 71 333 0.0 0.0 0.00 0.00 0.00 90 1013.1
20210801094005 71 333 0.0 0.0 0.00 0.00 0.00 90 1013.2
20210801093507 71 333 0.0 0.0 0.00 0.00 0.00 90 1013.2
20210801093004 71 333 0.0 0.0 0.00 0.00 0.00 90 1013.3
20210801092505 71 333 0.0 0.0 0.00 0.00 0.00 90 1013.3
20210801092002 71 333 0.0 0.0 0.00 0.00 0.00 90 1013.2
20210801091503 71 333 0.0 0.0 0.00 0.00 0.00 90 1013.3
20210801091006 71 333 0.0 0.0 0.00 0.00 0.00 90 1013.3
20210801090501 71 333 0.0 0.0 0.00 0.00 0.00 90 1013.3
20210801090004 71 333 0.0 0.0 0.00 0.00 0.00 90 1013.3
20210801085501 71 333 0.0 0.0 0.00 0.00 0.00 90 1013.3
20210801085008 71 333 0.0 0.0 0.00 0.00 0.00 90 1013.3
20210801084502 71 333 0.0 0.0 0.00 0.00 0.00 90 1013.4
20210801084001 71 333 0.0 0.0 0.00 0.00 0.00 90 1013.4
20210801083502 70 333 0.0 0.0 0.00 0.00 0.00 90 1013.4
20210801083001 70 333 0.0 0.0 0.00 0.00 0.00 89 1013.5
20210801082502 70 333 0.0 0.0 0.00 0.00 0.00 89 1013.5
20210801082004 70 333 0.0 0.0 0.00 0.00 0.00 89 1013.3
20210801081505 70 333 0.0 0.0 0.00 0.00 0.00 89 1013.4
20210801081000 70 333 0.0 0.0 0.00 0.00 0.00 89 1013.2
20210801080001 70 333 0.0 0.0 0.00 0.00 0.00 88 1013.1
20210801075459 70 333 0.0 0.0 0.00 0.00 0.00 88 1013.2
20210801074956 70 333 0.0 0.0 0.00 0.00 0.00 88 1013.1
20210801073953 70 333 0.0 0.0 0.00 0.00 0.00 88 1013.2
20210801073454 70 333 0.0 0.0 0.00 0.00 0.00 87 1013.1
20210801072952 70 333 0.0 0.0 0.00 0.00 0.00 87 1013.2
20210801072455 70 333 0.0 0.0 0.00 0.00 0.00 87 1013.1
20210801071951 70 333 0.0 0.0 0.00 0.00 0.00 87 1013.1
20210801071449 70 333 0.0 0.0 0.00 0.00 0.00 87 1013.1
20210801070949 70 333 0.0 0.0 0.00 0.00 0.00 87 1013.1
20210801070446 70 333 0.0 0.0 0.00 0.00 0.00 87 1013.1
20210801065950 70 333 0.0 0.0 0.00 0.00 0.00 87 1013.2
20210801065449 70 333 0.0 0.0 0.00 0.00 0.00 87 1013.3
20210801064944 70 333 0.0 0.0 0.00 0.00 0.00 87 1013.3
20210801064450 70 333 0.0 0.0 0.00 0.00 0.00 86 1013.4
20210801063940 70 333 0.0 0.0 0.00 0.00 0.00 86 1013.6
20210801063440 70 333 0.0 0.0 0.00 0.00 0.00 86 1013.6
20210801062937 70 333 0.0 0.0 0.00 0.00 0.00 86 1013.7
20210801061933 70 333 0.0 0.0 0.00 0.00 0.00 86 1013.6
20210801061434 70 333 0.0 0.0 0.00 0.00 0.00 85 1013.8
20210801055935 70 333 0.0 0.0 0.00 0.00 0.00 85 1013.6
20210801055435 70 333 0.0 0.0 0.00 0.00 0.00 85 1013.8
20210801054931 70 333 0.0 0.0 0.00 0.00 0.00 85 1013.8
20210801053932 70 333 0.0 0.0 0.00 0.00 0.00 84 1013.8
20210801052424 70 333 0.0 0.0 0.00 0.00 0.00 84 1014.0
20210801051922 70 333 0.0 0.0 0.00 0.00 0.00 84 1014.0
20210801051421 70 333 0.0 0.0 0.00 0.00 0.00 84 1014.1
20210801050918 70 333 0.0 0.0 0.00 0.00 0.00 84 1014.1
20210801050416 70 333 0.0 0.0 0.00 0.00 0.00 84 1014.1
20210801045913 70 333 0.0 0.0 0.00 0.00 0.00 84 1014.2
20210801045410 70 333 0.0 0.0 0.00 0.00 0.00 83 1014.4
20210801044912 70 333 0.0 0.0 0.00 0.00 0.00 83 1014.4
20210801043908 70 333 0.0 0.0 0.00 0.00 0.00 82 1014.7
20210801043405 70 333 0.0 0.0 0.00 0.00 0.00 82 1014.8
20210801042905 70 333 0.0 0.0 0.00 0.00 0.00 82 1014.7
20210801042405 71 333 0.0 0.0 0.00 0.00 0.00 82 1014.7
20210801041905 71 333 0.0 0.0 0.00 0.00 0.00 82 1014.7
20210801041407 70 333 0.0 0.0 0.00 0.00 0.00 82 1014.7
20210801040859 70 333 0.0 0.0 0.00 0.00 0.00 82 1014.7
20210801040402 70 333 0.0 0.0 0.00 0.00 0.00 82 1014.6